FW3803 Weather Reports


Display with metric or nautical units.
time (UTC)temp
F
wind
direction
speed
MPH
gust
MPH
rain 1hr
in
rain 24hr
in
rain mn
in
humidity
%
barometer
mb
20260507181016 52 0.0 1.0 0.00 1.23 1.23 89 1021.1
20260507180516 52 0.0 1.0 0.01 1.23 1.23 89 1021.2
20260507180016 52 0.0 1.0 0.01 1.23 1.23 89 1021.2
20260507175516 52 0.0 1.0 0.01 1.23 1.23 89 1021.2
20260507175041 52 0.0 1.0 0.01 1.23 1.23 88 1021.2
20260507174516 52 180 1.0 3.0 0.01 1.23 1.23 87 1021.3
20260507174015 52 0.0 2.0 0.01 1.23 1.23 88 1021.2
20260507173515 53 0.0 1.0 0.01 1.23 1.23 90 1021.3
20260507173016 53 0.0 0.0 0.01 1.23 1.23 90 1021.4
20260507172516 53 0.0 1.0 0.01 1.23 1.23 88 1021.5
20260507172016 53 0.0 2.0 0.01 1.23 1.23 89 1021.5
20260507171516 53 0.0 2.0 0.01 1.23 1.23 88 1021.4
20260507171016 53 0.0 2.0 0.01 1.23 1.23 88 1021.6
20260507170516 53 0.0 1.0 0.00 1.22 1.22 87 1021.6
20260507170036 53 0.0 1.0 0.00 1.22 1.22 88 1021.5
20260507165516 53 0.0 2.0 0.00 1.22 1.22 88 1021.6
20260507165016 53 0.0 0.0 0.00 1.22 1.22 88 1021.9
20260507164516 53 23 1.0 3.0 0.00 1.22 1.22 86 1021.7
20260507164036 54 0.0 1.0 0.00 1.22 1.22 86 1022.0
20260507163516 54 0.0 2.0 0.00 1.22 1.22 86 1021.9
20260507163016 54 0.0 2.0 0.00 1.22 1.22 87 1022.0
20260507162555 54 0.0 1.0 0.00 1.22 1.22 87 1022.1
20260507162016 54 0.0 1.0 0.00 1.22 1.22 87 1022.0
20260507161516 54 0.0 2.0 0.00 1.22 1.22 88 1022.0
20260507161017 54 23 1.0 5.0 0.00 1.22 1.22 89 1021.8
20260507160516 54 0.0 2.0 0.00 1.22 1.22 91 1022.0
20260507160056 54 0.0 0.0 0.00 1.22 1.22 91 1022.0
20260507155516 54 0.0 1.0 0.00 1.22 1.22 90 1022.1
20260507155015 54 0.0 1.0 0.00 1.22 1.22 91 1022.1
20260507154536 54 0.0 0.0 0.00 1.23 1.22 91 1021.7
20260507154016 54 0.0 1.0 0.00 1.23 1.22 90 1021.9
20260507153516 54 0.0 1.0 0.00 1.23 1.22 91 1021.9
20260507153016 54 0.0 1.0 0.00 1.23 1.22 90 1021.9
20260507152516 54 0.0 1.0 0.00 1.23 1.22 91 1021.8
20260507152016 54 0.0 1.0 0.00 1.23 1.22 92 1021.9
20260507151515 54 0.0 2.0 0.00 1.23 1.22 92 1021.9
20260507151016 54 0.0 1.0 0.00 1.23 1.22 93 1022.0
20260507150515 54 0.0 0.0 0.00 1.23 1.22 93 1021.9
20260507150015 54 0.0 1.0 0.00 1.23 1.22 92 1021.9
20260507145516 54 0.0 0.0 0.00 1.23 1.22 92 1021.9
20260507145016 54 0.0 0.0 0.00 1.23 1.22 92 1021.9
20260507144515 54 0.0 1.0 0.00 1.25 1.22 91 1021.8
20260507144035 54 0.0 1.0 0.00 1.26 1.22 92 1021.8
20260507143535 54 0.0 1.0 0.00 1.26 1.22 92 1021.5
20260507143016 55 0.0 1.0 0.00 1.26 1.22 91 1021.7
20260507142515 55 0.0 0.0 0.00 1.27 1.22 92 1021.9
20260507142015 55 0.0 1.0 0.00 1.27 1.22 92 1021.9
20260507141516 55 0.0 1.0 0.00 1.27 1.22 92 1021.9
20260507141016 55 0.0 1.0 0.00 1.27 1.22 91 1021.9
20260507140515 55 0.0 1.0 0.00 1.27 1.22 90 1022.1
20260507140015 55 0.0 2.0 0.00 1.27 1.22 90 1021.9
20260507135515 56 158 1.0 3.0 0.00 1.27 1.22 92 1021.9
20260507135056 56 0.0 1.0 0.00 1.27 1.22 94 1022.0
20260507134515 56 0.0 1.0 0.00 1.28 1.22 94 1022.0
20260507134016 56 0.0 1.0 0.00 1.28 1.22 95 1021.9
20260507133516 56 0.0 1.0 0.00 1.28 1.22 95 1021.8
20260507133015 56 0.0 1.0 0.00 1.28 1.22 95 1021.9
20260507132515 56 0.0 1.0 0.00 1.28 1.22 95 1021.5
20260507132016 56 0.0 1.0 0.00 1.28 1.22 95 1021.5
20260507131516 56 0.0 1.0 0.00 1.28 1.22 95 1021.4
20260507131015 56 0.0 1.0 0.00 1.28 1.22 95 1021.5
20260507130515 56 0.0 1.0 0.00 1.28 1.22 95 1021.4
20260507130015 56 0.0 0.0 0.00 1.28 1.22 95 1021.4
20260507125515 56 0.0 1.0 0.00 1.28 1.22 95 1021.5
20260507125036 56 0.0 0.0 0.00 1.28 1.22 95 1021.7
20260507124516 56 0.0 0.0 0.00 1.28 1.22 95 1021.7
20260507124016 56 0.0 1.0 0.00 1.28 1.22 95 1021.8
20260507123515 56 0.0 0.0 0.00 1.28 1.22 95 1021.8
20260507123055 56 0.0 0.0 0.00 1.28 1.22 95 1021.7
20260507122516 55 0.0 0.0 0.00 1.28 1.22 95 1021.7
20260507122015 55 0.0 0.0 0.00 1.28 1.22 95 1021.5
20260507121536 55 0.0 0.0 0.00 1.28 1.22 95 1021.4
20260507121121 55 0.0 0.0 0.00 1.28 1.22 95 1021.5
20260507120516 55 0.0 0.0 0.00 1.28 1.22 95 1021.4
20260507120015 55 0.0 0.0 0.01 1.28 1.22 95 1021.6
20260507115516 55 0.0 0.0 0.01 1.28 1.22 95 1021.5
20260507115015 55 0.0 1.0 0.01 1.28 1.22 95 1021.7
20260507114516 55 0.0 0.0 0.01 1.28 1.22 95 1021.8
20260507114015 55 0.0 0.0 0.02 1.28 1.22 95 1021.8
20260507113515 55 0.0 1.0 0.02 1.28 1.22 95 1021.5
20260507113016 55 0.0 1.0 0.06 1.28 1.22 95 1021.7
20260507112536 55 0.0 0.0 0.12 1.28 1.22 95 1021.6
20260507112016 55 0.0 0.0 0.17 1.28 1.22 95 1021.5
20260507111536 55 0.0 0.0 0.21 1.28 1.22 95 1021.2
20260507111016 55 0.0 1.0 0.24 1.28 1.22 94 1021.1
20260507110516 55 0.0 0.0 0.31 1.28 1.22 95 1021.5
20260507110016 55 0.0 0.0 0.38 1.27 1.21 94 1021.6
20260507105535 55 0.0 0.0 0.51 1.27 1.21 94 1021.4
20260507105015 55 0.0 0.0 0.58 1.27 1.21 94 1021.0
20260507104515 55 0.0 1.0 0.69 1.27 1.21 94 1021.0
20260507104016 55 0.0 1.0 0.72 1.26 1.20 94 1021.1
20260507103518 55 0.0 1.0 0.86 1.26 1.20 94 1021.0
20260507103016 56 0.0 3.0 0.95 1.22 1.16 93 1021.2
20260507102517 56 0.0 3.0 1.04 1.16 1.10 93 1021.1
20260507102015 56 0.0 2.0 1.01 1.11 1.05 93 1021.2
20260507101516 57 0.0 1.0 0.99 1.07 1.01 93 1021.0
20260507101015 57 0.0 2.0 0.97 1.04 0.98 93 1020.7
20260507100516 57 248 1.0 3.0 0.90 0.97 0.91 93 1020.7
20260507100015 58 0.0 4.0 0.82 0.89 0.83 93 1021.1
20260507095515 58 0.0 1.0 0.70 0.76 0.70 93 1021.1
20260507095015 59 135 1.0 4.0 0.63 0.69 0.63 92 1020.9
20260507094541 59 0.0 2.0 0.52 0.58 0.52 91 1020.5
20260507094015 60 338 1.0 2.0 0.48 0.54 0.48 90 1020.4
20260507093515 62 338 1.0 3.0 0.34 0.40 0.34 90 1020.7
20260507093015 64 158 1.0 3.0 0.21 0.27 0.21 90 1020.6
20260507092515 66 0.0 2.0 0.06 0.12 0.06 94 1020.3
20260507092016 66 0.0 1.0 0.04 0.10 0.04 94 1020.1
20260507091515 66 0.0 0.0 0.02 0.08 0.02 94 1020.4
20260507091015 66 0.0 0.0 0.01 0.07 0.01 93 1020.4
20260507090515 66 0.0 0.0 0.01 0.07 0.01 93 1020.3
20260507090015 66 0.0 0.0 0.01 0.07 0.01 93 1020.3
20260507085515 66 0.0 0.0 0.00 0.06 0.00 93 1020.1
20260507085015 66 0.0 1.0 0.00 0.06 0.00 93 1020.2
20260507084515 66 0.0 1.0 0.00 0.06 0.00 93 1020.3
20260507084015 66 0.0 1.0 0.00 0.06 0.00 93 1020.2
20260507083515 66 0.0 1.0 0.00 0.06 0.00 93 1020.1
20260507083015 66 0.0 1.0 0.00 0.06 0.00 93 1020.1
20260507082516 66 0.0 0.0 0.00 0.06 0.00 93 1020.1
20260507082015 66 0.0 1.0 0.00 0.06 0.00 93 1019.9
20260507081535 66 0.0 1.0 0.00 0.06 0.00 93 1019.7
20260507081015 66 0.0 1.0 0.00 0.06 0.00 93 1019.8
20260507080515 66 0.0 0.0 0.00 0.06 0.00 93 1019.7
20260507080015 66 0.0 0.0 0.00 0.06 0.00 93 1019.5
20260507075535 66 0.0 1.0 0.00 0.06 0.00 93 1019.5
20260507075015 66 0.0 1.0 0.00 0.06 0.00 93 1019.2
20260507074515 66 0.0 1.0 0.00 0.06 0.00 93 1019.1
20260507074015 66 0.0 0.0 0.00 0.06 0.00 93 1019.2
20260507073516 66 0.0 1.0 0.00 0.06 0.00 93 1019.4
20260507073015 66 0.0 2.0 0.00 0.06 0.00 92 1019.5
20260507072535 66 0.0 1.0 0.00 0.06 0.00 92 1019.6
20260507072035 66 0.0 0.0 0.00 0.06 0.00 93 1019.6
20260507071515 66 0.0 1.0 0.00 0.06 0.00 93 1019.7
20260507071015 66 0.0 0.0 0.00 0.06 0.00 92 1020.0
20260507070515 66 0.0 1.0 0.00 0.06 0.00 93 1020.1
20260507070015 66 0.0 1.0 0.00 0.06 0.00 93 1019.9
20260507065515 66 0.0 0.0 0.00 0.06 0.00 93 1019.9
20260507065015 66 0.0 1.0 0.00 0.06 0.00 93 1019.9
20260507064535 66 0.0 1.0 0.00 0.06 0.00 93 1019.7
20260507064015 66 0.0 1.0 0.00 0.06 0.00 93 1019.7
20260507063515 66 0.0 1.0 0.00 0.06 0.00 93 1019.8
20260507063036 65 0.0 4.0 0.00 0.06 0.00 93 1019.7
20260507062540 65 0.0 4.0 0.00 0.06 0.00 93 1019.6
20260507062015 65 0.0 0.0 0.00 0.06 0.00 93 1019.5
20260507061515 65 0.0 0.0 0.00 0.06 0.00 93 1019.6
20260507061015 65 0.0 0.0 0.00 0.06 0.00 92 1019.6
20260507060515 65 0.0 0.0 0.00 0.06 0.00 93 1019.6
20260507060015 65 0.0 0.0 0.00 0.06 0.00 93 1019.6
20260507055515 65 0.0 0.0 0.00 0.06 0.00 92 1019.6
20260507055015 65 0.0 0.0 0.00 0.06 0.00 92 1019.7
20260507054515 66 0.0 0.0 0.00 0.06 0.00 92 1019.7
20260507054015 66 0.0 0.0 0.00 0.06 0.00 92 1019.7
20260507053515 66 0.0 0.0 0.00 0.06 0.00 92 1019.7
20260507053015 66 0.0 0.0 0.00 0.06 0.00 92 1020.0
20260507052515 66 0.0 0.0 0.00 0.06 0.00 92 1020.1
20260507052035 66 0.0 0.0 0.00 0.06 0.00 92 1020.0
20260507051516 66 0.0 0.0 0.00 0.06 0.00 92 1020.1
20260507051015 66 0.0 0.0 0.00 0.06 0.00 92 1020.1
20260507050535 66 0.0 0.0 0.00 0.06 0.00 92 1020.3
20260507050015 66 0.0 0.0 0.00 0.06 0.00 91 1020.5
20260507045515 66 0.0 0.0 0.00 0.06 0.00 91 1020.7
20260507045015 66 0.0 1.0 0.00 0.06 0.00 91 1020.9
20260507044515 66 0.0 0.0 0.00 0.06 0.00 91 1021.0
20260507044015 66 0.0 1.0 0.00 0.06 0.00 91 1021.1
20260507043515 66 3 0.0 0.0 0.00 0.06 0.00 91 1021.0
20260507043015 66 0.0 0.0 0.00 0.06 0.00 91 1021.1
20260507042515 66 0.0 0.0 0.00 0.06 0.00 91 1021.0
20260507042015 66 0.0 0.0 0.00 0.06 0.00 91 1020.8
20260507041515 66 0.0 0.0 0.00 0.06 0.00 91 1020.8
20260507041015 66 0.0 0.0 0.00 0.06 0.00 91 1020.8
20260507040535 66 0.0 0.0 0.00 0.06 0.00 91 1020.9
20260507040015 66 0.0 0.0 0.00 0.06 0.06 91 1020.8
20260507035516 66 0.0 0.0 0.00 0.06 0.06 91 1020.7
20260507035016 66 0.0 1.0 0.00 0.06 0.06 91 1020.4
20260507034516 66 0.0 0.0 0.00 0.06 0.06 92 1020.7
20260507034016 65 0.0 1.0 0.00 0.06 0.06 92 1020.7
20260507033516 65 0.0 1.0 0.00 0.06 0.06 92 1020.7
20260507033016 65 0.0 1.0 0.00 0.06 0.06 92 1020.5
20260507032516 65 0.0 0.0 0.00 0.06 0.06 92 1020.3
20260507032016 65 0.0 1.0 0.00 0.06 0.06 92 1020.3
20260507031536 65 0.0 1.0 0.00 0.06 0.06 92 1020.2
20260507031016 65 0.0 1.0 0.00 0.06 0.06 92 1020.3
20260507030516 65 0.0 0.0 0.00 0.06 0.06 92 1020.3
20260507030016 65 0.0 0.0 0.00 0.06 0.06 92 1020.3
20260507025516 65 0.0 1.0 0.00 0.06 0.06 92 1020.1
20260507025056 65 0.0 0.0 0.00 0.06 0.06 91 1020.2
20260507024516 65 0.0 2.0 0.00 0.06 0.06 92 1020.1
20260507024016 65 0.0 1.0 0.00 0.06 0.06 92 1020.3
20260507023516 65 0.0 0.0 0.00 0.06 0.06 92 1020.4
20260507023036 65 0.0 0.0 0.00 0.06 0.06 92 1020.4
20260507022536 65 0.0 0.0 0.00 0.06 0.06 92 1020.5
20260507022016 65 0.0 0.0 0.00 0.06 0.06 92 1020.5
20260507021516 65 0.0 1.0 0.00 0.06 0.06 92 1020.5
20260507021016 65 0.0 0.0 0.00 0.06 0.06 92 1020.5
20260507020516 65 0.0 1.0 0.00 0.06 0.06 92 1020.8
20260507020016 65 0.0 2.0 0.00 0.06 0.06 92 1020.9
20260507015516 65 0.0 0.0 0.00 0.06 0.06 92 1021.1
20260507015036 65 0.0 0.0 0.00 0.06 0.06 92 1021.0
20260507014516 65 0.0 0.0 0.00 0.06 0.06 92 1020.8
20260507014036 65 0.0 0.0 0.00 0.06 0.06 92 1020.9
20260507013516 65 0.0 0.0 0.00 0.06 0.06 92 1020.7
20260507013016 65 0.0 0.0 0.00 0.06 0.06 91 1020.7
20260507012516 65 0.0 0.0 0.00 0.06 0.06 91 1020.6
20260507012016 65 0.0 0.0 0.00 0.06 0.06 91 1020.5
20260507011516 65 0.0 0.0 0.00 0.06 0.06 91 1020.6
20260507011016 65 0.0 0.0 0.00 0.06 0.06 90 1020.6
20260507010516 65 0.0 0.0 0.00 0.06 0.06 90 1020.6
20260507010016 65 0.0 0.0 0.00 0.06 0.06 90 1020.5
20260507005516 66 0.0 0.0 0.00 0.06 0.06 90 1020.5
20260507005016 66 0.0 0.0 0.00 0.06 0.06 89 1020.6
20260507004516 66 0.0 0.0 0.00 0.06 0.06 89 1020.4
20260507004016 66 0.0 0.0 0.00 0.06 0.06 88 1020.6
20260507003516 67 0.0 0.0 0.00 0.06 0.06 88 1020.5
20260507003016 67 0.0 0.0 0.00 0.06 0.06 88 1020.6
20260507002516 67 0.0 0.0 0.00 0.06 0.06 87 1020.6
20260507002016 67 0.0 0.0 0.00 0.06 0.06 87 1020.7
20260507001516 67 0.0 0.0 0.00 0.06 0.06 87 1020.6
20260507001036 68 0.0 0.0 0.00 0.06 0.06 87 1020.8
20260507000516 68 0.0 0.0 0.00 0.06 0.06 87 1020.9
20260507000016 68 0.0 0.0 0.00 0.06 0.06 87 1020.8
20260506235516 68 0.0 0.0 0.00 0.06 0.06 86 1020.8
20260506235036 68 0.0 0.0 0.00 0.06 0.06 86 1020.6
20260506234516 68 0.0 0.0 0.00 0.06 0.06 86 1020.5
20260506234016 68 0.0 0.0 0.00 0.06 0.06 86 1020.4
20260506233516 68 0.0 0.0 0.00 0.06 0.06 86 1020.2
20260506233036 69 0.0 0.0 0.00 0.06 0.06 85 1020.2
20260506232516 69 0.0 1.0 0.00 0.06 0.06 85 1020.2
20260506232016 69 0.0 0.0 0.00 0.06 0.06 85 1020.3
20260506231516 69 0.0 1.0 0.00 0.06 0.06 85 1020.3
20260506231016 69 0.0 0.0 0.00 0.06 0.06 85 1020.3
20260506230518 69 0.0 0.0 0.00 0.06 0.06 84 1020.4
20260506230036 69 0.0 0.0 0.00 0.06 0.06 84 1020.3
20260506225516 69 0.0 1.0 0.00 0.06 0.06 83 1020.3
20260506225016 70 0.0 0.0 0.00 0.06 0.06 83 1020.4
20260506224516 70 0.0 1.0 0.00 0.06 0.06 83 1020.3
20260506224036 70 0.0 0.0 0.00 0.06 0.06 83 1020.4
20260506223516 70 0.0 0.0 0.00 0.06 0.06 83 1020.3
20260506223016 70 0.0 0.0 0.00 0.06 0.06 82 1020.3
20260506222536 70 0.0 0.0 0.00 0.06 0.06 82 1020.3
20260506222016 70 0.0 0.0 0.00 0.06 0.06 82 1020.3
20260506221516 70 0.0 1.0 0.00 0.06 0.06 82 1020.3
20260506221016 70 0.0 0.0 0.00 0.06 0.06 81 1020.3
20260506220516 70 0.0 1.0 0.00 0.06 0.06 81 1020.2
20260506220036 70 0.0 1.0 0.00 0.06 0.06 81 1020.2
20260506215516 70 0.0 1.0 0.00 0.06 0.06 81 1020.2
20260506215036 70 0.0 1.0 0.00 0.06 0.06 81 1020.2
20260506214516 70 0.0 2.0 0.00 0.06 0.06 80 1020.2
20260506214016 70 0.0 1.0 0.00 0.06 0.06 81 1020.3
20260506213516 70 0.0 2.0 0.00 0.06 0.06 80 1020.3
20260506213016 70 113 1.0 3.0 0.00 0.06 0.06 81 1020.5
20260506212516 70 0.0 2.0 0.00 0.06 0.06 81 1020.5
20260506212036 70 0.0 2.0 0.00 0.06 0.06 81 1020.6
20260506211516 70 0.0 1.0 0.00 0.06 0.06 80 1020.6
20260506211016 70 158 1.0 5.0 0.00 0.06 0.06 82 1020.4
20260506210516 70 0.0 2.0 0.00 0.06 0.06 81 1020.4
20260506210016 69 113 1.0 6.0 0.00 0.06 0.06 79 1020.3
20260506205516 69 0.0 3.0 0.00 0.06 0.06 81 1020.1
20260506205016 69 0 1.0 5.0 0.00 0.06 0.06 82 1020.3
20260506204516 69 0.0 1.0 0.00 0.06 0.06 83 1020.4
20260506204016 69 0.0 1.0 0.00 0.06 0.06 82 1020.3
20260506203556 69 0.0 1.0 0.00 0.06 0.06 82 1020.4
20260506203016 69 315 1.0 5.0 0.00 0.06 0.06 81 1020.5
20260506202516 69 0.0 1.0 0.00 0.06 0.06 83 1020.4
20260506202016 69 0.0 2.0 0.00 0.06 0.06 83 1020.2
20260506201516 69 0.0 2.0 0.00 0.06 0.06 82 1020.1
20260506201016 69 0.0 1.0 0.00 0.06 0.06 83 1020.0
20260506200516 69 0.0 1.0 0.00 0.06 0.06 82 1019.8
20260506200016 69 0.0 2.0 0.00 0.06 0.06 82 1020.0
20260506195516 69 0 1.0 4.0 0.00 0.06 0.06 82 1019.6
20260506195036 69 270 1.0 2.0 0.00 0.06 0.06 83 1019.4
20260506194516 69 0.0 2.0 0.00 0.06 0.06 84 1019.4
20260506194016 69 0.0 2.0 0.00 0.06 0.06 84 1019.6
20260506193516 68 113 1.0 2.0 0.00 0.06 0.06 84 1019.5
20260506193036 68 0.0 3.0 0.00 0.06 0.06 84 1019.8
20260506192536 68 0.0 1.0 0.00 0.06 0.06 84 1019.8
20260506192016 68 135 1.0 6.0 0.00 0.06 0.06 84 1019.8
20260506191516 68 0.0 2.0 0.00 0.06 0.06 85 1020.0
20260506191016 68 158 1.0 6.0 0.00 0.06 0.06 86 1020.1
20260506190516 67 0.0 3.0 0.00 0.06 0.06 86 1020.3
20260506190016 67 113 1.0 4.0 0.00 0.06 0.06 87 1020.0
20260506185516 67 113 1.0 5.0 0.00 0.06 0.06 85 1020.3
20260506185016 67 158 1.0 5.0 0.00 0.06 0.06 87 1020.6
20260506184516 66 270 1.0 7.0 0.00 0.06 0.06 87 1021.0
20260506184016 66 113 1.0 4.0 0.00 0.06 0.06 89 1021.2
20260506183516 66 0.0 2.0 0.00 0.06 0.06 89 1021.3
20260506183016 66 113 1.0 5.0 0.00 0.06 0.06 89 1021.3
20260506182516 65 0.0 1.0 0.00 0.06 0.06 91 1021.6
20260506182036 65 0.0 1.0 0.00 0.06 0.06 90 1021.8
20260506181515 65 135 1.0 5.0 0.00 0.06 0.06 90 1021.8